• MPC Preparation (Info)

  • MPEC 2023-F195 : 2023 FR6

    The following Minor Planet Electronic Circular may be linked-to from your own Web pages, but must not otherwise be redistributed electronically.

    A form allowing access to any MPEC is at the bottom of this page.


    Read MPEC 2023-F194 Read MPEC 2023-F196


    M.P.E.C. 2023-F195                               Issued 2023 March 28, 18:22 UT
    
         The Minor Planet Electronic Circulars contain information on unusual
             minor planets, routine data on comets and natural satellites,
             and occasional editorial announcements.  They are published
        on behalf of Division F of the International Astronomical Union by the
              Minor Planet Center, Smithsonian Astrophysical Observatory,
                              Cambridge, MA 02138, U.S.A.
    			  
                 Prepared using the Tamkin Foundation Computer Network
    
                                  MPC@CFA.HARVARD.EDU
                URL https://www.minorplanetcenter.net/    ISSN 1523-6714
    
                                    2023 FR6                                 
    
    
    Observations:
         K23F06R* C2023 03 27.53976014 22 48.767-04 47 43.98         20.78wUEF195F52
         K23F06R  C2023 03 27.55193514 22 42.893-04 45 51.49         20.69wUEF195F52
         K23F06R  C2023 03 27.57620314 22 31.345-04 42 10.06         20.93wUEF195F52
         K23F06R  C2023 03 27.63134514 22 05.711-04 33 49.55         20.70GVEF195F51
         K23F06R  C2023 03 27.63198514 22 05.412-04 33 43.53         21.00GVEF195F51
         K23F06R |C2023 03 28.29772 14 18 04.32 -02 59 42.5          21.0 GVEF195807
         K23F06R KC2023 03 28.30154114 18 08.982-03 02 00.71         21.00GVEF195I52
         K23F06R |C2023 03 28.30324 14 18 02.10 -02 59 00.6          21.3 GVEF195807
         K23F06R KC2023 03 28.30449214 18 07.801-03 01 38.21         20.71GVEF195I52
         K23F06R KC2023 03 28.30744114 18 06.635-03 01 15.78         20.89GVEF195I52
         K23F06R |C2023 03 28.30877 14 17 59.90 -02 58 18.4          20.9 GVEF195807
         K23F06R KC2023 03 28.31039014 18 05.472-03 00 53.46         21.02GVEF195I52
         K23F06R KC2023 03 28.32823214 17 54.91 -02 58 54.3          21.0 GVEF195H21
         K23F06R KC2023 03 28.33103014 17 53.81 -02 58 33.0          20.9 GVEF195H21
         K23F06R KC2023 03 28.33382814 17 52.70 -02 58 12.2          20.7 GVEF195H21
         K23F06R KC2023 03 28.33634614 17 51.72 -02 57 53.1          20.9 GVEF195H21
         K23F06R 3C2023 03 28.48463014 17 04.447-02 38 46.34         21.10GVEF195T14
         K23F06R 3C2023 03 28.48561014 17 04.065-02 38 39.23         21.12GVEF195T14
         K23F06R 3C2023 03 28.48658914 17 03.681-02 38 32.06         21.06GVEF195T14
         K23F06R 3C2023 03 28.48790114 17 03.168-02 38 22.53         21.08GVEF195T14
         K23F06R 3C2023 03 28.48888014 17 02.785-02 38 15.43         21.12GVEF195T14
         K23F06R 3C2023 03 28.48986114 17 02.400-02 38 08.27         21.10GVEF195T14
    
    Observer details:
    807 Cerro Tololo Observatory, La Serena.  Observers T. Linder, R. Holmes, L.
        Horn.  1.00-m f/10.0 astrograph + CCD.
    F51 Pan-STARRS 1, Haleakala.  Observers J. Bulger, K. Chambers, T. Lowe, A.
        Schultz, I. Smith.  Measurers S. Chastel, J. Fairlamb, M. Huber, Y.
        Ramanjooloo, R. Wainscoat, R. Weryk.  1.8-m Ritchey-Chretien + CCD.
    F52 Pan-STARRS 2, Haleakala.  Observers J. Bulger, T. Lowe, A. Schultz, I.
        Smith.  Measurers K. Chambers, S. Chastel, T. de Boer, J. Fairlamb, H.
        Gao, M. Huber, C.-C. Lin, E. Magnier, Y. Ramanjooloo, R. Wainscoat, R.
        Weryk.  1.8-m Ritchey-Chretien + CCD.
    H21 Astronomical Research Observatory, Westfield.  Observer R. Holmes.
        Measurers T. Linder, R. Holmes, L. Horn.  0.76-m f/3.0 astrograph + CCD.
    I52 Steward Observatory, Mt. Lemmon Station.  Observer J. B. Fazekas.
        Measurers E. J. Christensen, D. Fay, J. B. Fazekas, D. C. Fuls, A. R.
        Gibbs, A. D. Grauer, H. Groeller, J. K. Hogan, R. A. Kowalski, S. M.
        Larson, G. J. Leonard, D. Rankin, R. L. Seaman, A. Serrano, F. C. Shelly,
        K. W. Wierzchos.  1.0-m prime focus + CCD.
    T14 Canada-France-Hawaii Telescope, Maunakea.  Observers R. Wainscoat, L.
        Wells, E. Bertin.  Measurers R. Weryk, R. Wainscoat.  3.6-m Canada-France-
        Hawaii Telescope + CCD.
    
    Orbital elements:
    2023 FR6                                                 Earth MOID = 0.0084 AU
    Epoch 2023 Feb. 25.0 TT = JDT 2460000.5                 Veres                   
    M   9.68583              (2000.0)            P               Q                  
    n   0.48782109     Peri.  294.78628     -0.48904219     -0.87219392             
    a   1.5981922      Node   184.53514     +0.84132048     -0.46840713             
    e   0.4823736      Incl.    7.81208     +0.23025548     -0.14096996             
    P   2.02           H   26.26          G   0.15           U   7                  
    Residuals in seconds of arc
    230327 F52  0.2+  0.2-    230328 I52  0.1-  0.0     230328 T14  0.0   0.0
    230327 F52  0.2-  0.5+    230328 I52  0.2-  0.1+    230328 T14  0.0   0.0
    230327 F52  0.1+  0.2-    230328 807  0.1+  0.2+    230328 T14  0.0   0.0
    230327 F51  0.0   0.2-    230328 I52  0.2-  0.0     230328 T14  0.0   0.0
    230327 F51  0.1-  0.1+    230328 H21  0.1+  0.1+    230328 T14  0.0   0.0
    230328 807  0.0   0.1+    230328 H21  0.2+  0.3+    230328 T14  0.0   0.0
    230328 I52  0.2+  0.1-    230328 H21  0.0   0.1-
    230328 807  0.1-  0.0     230328 H21  0.1+  0.1-
    
    Ephemeris:
    2023 FR6                 a,e,i = 1.60, 0.48, 8                   q = 0.8273
    Date    TT    R. A. (2000) Decl.     Delta      r    Elong.  Phase     V
    2023 02 26    01 09 36.5 -18 22 42   0.1606  0.8707    38.8   134.5    28.2
    ...
    2023 03 13    00 44 03.2 -29 25 12   0.05639 0.9461    31.5   146.7    27.7
    ...
    2023 03 21    17 56 05.3 -52 02 32   0.01885 0.9962    90.4    88.5    20.7
    ...
    2023 03 27    14 26 48.8 -06 15 05   0.04575 1.0368   148.4    30.3    20.9
    2023 03 28    14 19 51.4 -03 40 10   0.05204 1.0438   151.2    27.4    21.2
    2023 03 29    14 14 22.8 -01 38 53   0.05848 1.0508   153.5    25.1    21.4
    ...
    2023 04 04    13 56 06.3 +04 42 43   0.09891 1.0937   160.7    17.6    22.4
    ...
    2023 04 12    13 45 24.0 +07 35 49   0.1564  1.1524   162.8    14.9    23.4
    ...
    2023 04 27    13 37 07.1 +08 23 58   0.2770  1.2645   156.1    18.8    24.9
    
    M. P. C. Staff               (C) Copyright 2023 MPC           M.P.E.C. 2023-F195
    


    Read MPEC 2023-F194 Read MPEC 2023-F196


    MPEC number:

    Enter an MPEC number in one of the following forms:

    • 1997-B01 (the full form)
    • J97B01 (the packed version of the full form)
    • B01 (the abbreviated form)